Regional Weather Roundup
Issued by NWS

Home | Current Version | Previous Version | Graphics & Text | Print | Product List | Glossary On
Versions: 1 2 3 4 5 6 7 8 9 10 11 12 13 14 15 16 17 18 19 20 21 22 23 24 25 26 27 28 29 30 31 32 33 34 35 36 37 38 39 40 41 42 43 44 45 46 47 48 49 50
637
ASUS45 KSLC 290310
RWRUT

UTAH REGIONAL WEATHER ROUNDUP
NATIONAL WEATHER SERVICE SALT LAKE CITY UT
900 PM MDT THU APR 28 2016

UTZ001>011-023>025-290400-

NORTHERN UTAH

CITY           SKY/WX    TMP DP  RH WIND       PRES   REMARKS
BRIGHAM CITY   MOCLDY    51  26  38 E14G30    29.84R
HILL AFB       NOT AVBL
LOGAN          PTCLDY    48  28  46 E24G33    29.84R
OGDEN          PTCLDY    48  30  49 NE14G25   29.80R
PROVO AIRPORT  MOCLDY    48  37  66 CALM      29.79R
SALT LAKE CITY CLOUDY    51  32  48 E13       29.79R
VERNAL         CLOUDY    41  35  79 NE6       29.87R
WENDOVER       CLOUDY    52  41  66 CALM      29.83R
HEBER CITY     CLOUDY    41  32  70 NE13      29.84R

$$

UTZ012>022-026-027-290400-

SOUTHERN/CENTRAL UTAH

CITY           SKY/WX    TMP DP  RH WIND       PRES   REMARKS
BLANDING       PTCLDY    39  34  82 W3        29.88R
BRYCE CANYON   LGT SNOW  33  32  96 W5        29.82R FOG     WCI  29
CEDAR CITY     LGT RAIN  39  37  92 NE3       29.81R
DELTA          CLOUDY    45  41  87 CALM      29.80S
MILFORD        CLOUDY    43  40  89 W6        29.81R
MOAB/CYNLANDS  LGT RAIN  47  40  76 S7        29.76S
PRICE          MOCLDY    41  36  82 S10       29.81R
ST GEORGE      CLOUDY    52  45  76 NE10      29.80R

$$

REGIONAL REPORTS     COLORADO/ARIZONA

CITY           SKY/WX    TMP DP  RH WIND       PRES   REMARKS
CRAIG, CO      CLOUDY    37  33  85 E3        29.91R
GRAND JUNCTION CLOUDY    45  38  76 E7        29.80F
RIFLE          CLOUDY    49  35  58 CALM      29.82R
MONTROSE       CLOUDY    45  35  68 NE7       29.85R
CORTEZ         CLOUDY    42  35  76 SW5       29.83R
PAGE, AZ       CLOUDY    51  37  58 W10G22    29.77R
GRAND CANYON   CLOUDY    38  36  92 S3        29.84R
KINGMAN        CLOUDY    50  45  83 SE14      29.80R
FLAGSTAFF      PTCLDY    34  31  88 CALM      29.86R

$$

REGIONAL REPORTS    NEVADA/IDAHO/WYOMING

CITY           SKY/WX    TMP DP  RH WIND       PRES   REMARKS
LAS VEGAS, NV  CLOUDY    57  49  74 NW3       29.74R
ELY            CLOUDY    41  35  79 N10       29.87R
ELKO           CLOUDY    49  37  63 NW9       29.89R
POCATELLO, ID  CLOUDY    50  30  46 N6        29.83R
BURLEY         CLOUDY    48  39  71 N12G20    29.84R
EVANSTON, WY   CLOUDY    32  27  81 NE13      29.91R WCI  22
ROCK SPRINGS   CLOUDY    32  26  78 NE22G29   29.95R WCI  19
KEMMERER         N/A     30  30 100 E10       29.95R WCI  21

$$




USA.gov is the U.S. government's official web portal to all federal, state and local government web resources and services.